Weather History for Fairfield, IA

Change the Weather History Date:

Wednesday, November 2, 2011

  Actual Average Record
Temperature  
Mean Temperature 50 °F -  
Max Temperature 64 °F 53 °F 75 °F (1978)
Min Temperature 37 °F 38 °F 17 °F (1991)
Degree Days  
Heating Degree Days 14    
Moisture  
Dew Point 39 °F    
Average Humidity 66    
Maximum Humidity 93    
Minimum Humidity 39    
Precipitation  
Precipitation 0.53 in - - ()
Sea Level Pressure  
Sea Level Pressure 30.00 in    
Wind  
Wind Speed 12 mph (NW)    
Max Wind Speed 24 mph    
Max Gust Speed 30 mph    
Visibility 9 miles    
Events Rain    
Averages and records for this station are not official NWS values.
T = Trace of Precipitation, MM = Missing Value Source: NWS Daily Summary

Daily Weather History Graph

Daily Weather History Graph

Search for Another Location

Airport:

Trip Planner

Search our weather history database for the weather conditions in past years. The results will help you decide how hot, cold, wet, or windy it might be!

Date:

Astronomy

Nov. 02, 2011 Rise Set
Actual Time 7:39 AM CDT 6:02 PM CDT
Civil Twilight 7:11 AM CDT 6:31 PM CDT
Nautical Twilight 6:38 AM CDT 7:03 PM CDT
Astronomical Twilight 6:06 AM CDT 7:35 PM CDT
Moon 1:59 PM CDT (11/2) No Moon Set
Length of Visible Light 11h 20m
Length of Day
10h 22m
Waxing Crescent, 50% of the Moon is Illuminated
Nov 2
Waxing Crescent
Nov 10
Full
Nov 18
Last Quarter
Nov 25
New
Dec 2
First Quarter

Hourly Weather History & Observations

Time (CDT) Temp. Windchill Dew Point Humidity Pressure Visibility Wind Dir Wind Speed Gust Speed Precip Events Conditions
12:15 AM 64.4 °F - 39.2 °F 40% 29.94 in 10.0 mi South 15.0 mph - N/A   Clear
12:35 AM 62.6 °F - 39.2 °F 42% 29.95 in 10.0 mi South 13.8 mph 19.6 mph N/A   Clear
12:55 AM 62.6 °F - 37.4 °F 39% 29.95 in 10.0 mi South 12.7 mph 18.4 mph N/A   Clear
1:15 AM 62.6 °F - 37.4 °F 39% 29.95 in 10.0 mi South 11.5 mph - N/A   Clear
1:35 AM 60.8 °F - 37.4 °F 42% 29.96 in 10.0 mi South 11.5 mph - N/A   Scattered Clouds
1:55 AM 60.8 °F - 37.4 °F 42% 29.96 in 10.0 mi South 11.5 mph - N/A   Mostly Cloudy
2:15 AM 60.8 °F - 37.4 °F 42% 29.96 in 10.0 mi South 12.7 mph 17.3 mph N/A   Mostly Cloudy
2:35 AM 60.8 °F - 37.4 °F 42% 29.96 in 10.0 mi South 13.8 mph 19.6 mph N/A   Mostly Cloudy
2:55 AM 60.8 °F - 37.4 °F 42% 29.97 in 10.0 mi South 9.2 mph - N/A   Overcast
3:15 AM 60.8 °F - 37.4 °F 42% 29.97 in 10.0 mi South 11.5 mph - N/A   Overcast
3:35 AM 60.8 °F - 37.4 °F 42% 29.97 in 10.0 mi South 10.4 mph - N/A   Overcast
3:55 AM 60.8 °F - 37.4 °F 42% 29.97 in 10.0 mi South 10.4 mph - N/A   Overcast
4:55 AM 59.0 °F - 37.4 °F 45% 29.97 in 10.0 mi South 9.2 mph - N/A   Overcast
5:55 AM 59.0 °F - 37.4 °F 45% 29.97 in 10.0 mi South 9.2 mph - N/A   Overcast
6:15 AM 57.2 °F - 37.4 °F 48% 29.97 in 10.0 mi South 9.2 mph - N/A   Mostly Cloudy
6:35 AM 57.2 °F - 37.4 °F 48% 29.97 in 10.0 mi South 8.1 mph - N/A   Scattered Clouds
6:55 AM 57.2 °F - 37.4 °F 48% 29.98 in 10.0 mi SSW 5.8 mph - N/A   Mostly Cloudy
7:35 AM 57.2 °F - 37.4 °F 48% 30.00 in 10.0 mi South 3.5 mph - N/A   Overcast
7:55 AM 55.4 °F - 37.4 °F 51% 30.00 in 10.0 mi South 4.6 mph - N/A   Mostly Cloudy
8:15 AM 55.4 °F - 39.2 °F 54% 30.01 in 10.0 mi WNW 6.9 mph - N/A   Overcast
8:35 AM 51.8 °F - 41.0 °F 67% 30.02 in 10.0 mi West 4.6 mph - N/A   Mostly Cloudy
8:55 AM 51.8 °F - 41.0 °F 67% 30.03 in 10.0 mi West 3.5 mph - N/A   Overcast
9:15 AM 51.8 °F - 41.0 °F 67% 30.03 in 10.0 mi West 4.6 mph - N/A   Mostly Cloudy
9:35 AM 51.8 °F - 41.0 °F 67% 30.02 in 10.0 mi West 4.6 mph - N/A   Clear
9:55 AM 51.8 °F - 41.0 °F 67% 30.03 in 10.0 mi WNW 4.6 mph - N/A   Clear
10:15 AM 53.6 °F - 42.8 °F 67% 30.02 in 10.0 mi West 5.8 mph - N/A   Scattered Clouds
10:35 AM 51.8 °F - 41.0 °F 67% 30.01 in 10.0 mi WNW 5.8 mph - N/A   Scattered Clouds
10:55 AM 53.6 °F - 41.0 °F 62% 29.99 in 10.0 mi NNW 6.9 mph - N/A   Scattered Clouds
11:15 AM 53.6 °F - 41.0 °F 62% 30.01 in 10.0 mi WNW 5.8 mph - N/A   Mostly Cloudy
11:35 AM 53.6 °F - 41.0 °F 62% 30.01 in 10.0 mi NW 9.2 mph - N/A   Overcast
11:55 AM 53.6 °F - 41.0 °F 62% 30.01 in 10.0 mi NNW 8.1 mph - N/A   Overcast
12:15 PM 53.6 °F - 41.0 °F 62% 30.01 in 10.0 mi NNW 5.8 mph - N/A   Overcast
12:35 PM 53.6 °F - 41.0 °F 62% 29.99 in 10.0 mi North 5.8 mph - N/A   Mostly Cloudy
12:55 PM 51.8 °F - 42.8 °F 71% 29.98 in 10.0 mi NNW 8.1 mph - N/A Rain Light Rain
1:15 PM 51.8 °F - 42.8 °F 71% 29.99 in 10.0 mi NNW 9.2 mph - N/A   Overcast
1:35 PM 50.0 °F - 42.8 °F 76% 29.99 in 10.0 mi NNW 11.5 mph - N/A   Overcast
1:55 PM 50.0 °F - 42.8 °F 76% 29.98 in 10.0 mi NNW 15.0 mph - N/A   Overcast
2:15 PM 48.2 °F - 42.8 °F 82% 30.01 in 10.0 mi NW 12.7 mph - N/A   Overcast
2:35 PM 48.2 °F - 42.8 °F 82% 30.00 in 7.0 mi NNW 12.7 mph - N/A Rain Light Rain
2:55 PM 46.4 °F 40.1 °F 42.8 °F 87% 30.00 in 10.0 mi NNW 15.0 mph - N/A   Overcast
3:15 PM 46.4 °F 40.7 °F 42.8 °F 87% 30.01 in 10.0 mi North 12.7 mph - N/A   Overcast
3:35 PM 46.4 °F 40.4 °F 41.0 °F 81% 30.00 in 10.0 mi North 13.8 mph - N/A   Overcast
3:55 PM 46.4 °F 41.9 °F 41.0 °F 81% 30.02 in 10.0 mi North 9.2 mph 16.1 mph N/A   Light Drizzle
4:15 PM 46.4 °F 41.1 °F 41.0 °F 81% 30.02 in 10.0 mi NNW 11.5 mph - N/A   Light Drizzle
4:35 PM 46.4 °F 39.8 °F 41.0 °F 81% 30.02 in 10.0 mi North 16.1 mph 19.6 mph 0.01 in   Drizzle
4:55 PM 44.6 °F 38.4 °F 39.2 °F 81% 30.03 in 10.0 mi North 12.7 mph - 0.01 in   Light Drizzle
5:15 PM 44.6 °F 37.2 °F 39.2 °F 81% 30.04 in 10.0 mi North 17.3 mph 21.9 mph N/A   Overcast
5:35 PM 44.6 °F 37.2 °F 39.2 °F 81% 30.05 in 10.0 mi North 17.3 mph 24.2 mph N/A Rain Light Rain
5:55 PM 44.6 °F 36.6 °F 39.2 °F 81% 30.05 in 10.0 mi North 19.6 mph 26.5 mph N/A Rain Light Rain
6:15 PM 42.8 °F 33.8 °F 37.4 °F 81% 30.03 in 10.0 mi North 21.9 mph 27.6 mph N/A Rain Light Rain
6:35 PM 42.8 °F 33.3 °F 37.4 °F 81% 30.03 in 7.0 mi North 24.2 mph 29.9 mph N/A   Overcast
6:55 PM 41.0 °F 30.9 °F 37.4 °F 87% 30.02 in 7.0 mi North 24.2 mph 29.9 mph N/A   Overcast
7:15 PM 39.2 °F 28.5 °F 35.6 °F 87% 30.01 in 7.0 mi North 24.2 mph 29.9 mph N/A   Overcast
7:35 PM 39.2 °F 28.7 °F 35.6 °F 87% 30.01 in 10.0 mi North 23.0 mph 29.9 mph 0.03 in Rain Light Rain
7:55 PM 39.2 °F 29.3 °F 35.6 °F 87% 30.03 in 3.0 mi North 20.7 mph 28.8 mph 0.08 in Rain Heavy Rain
8:15 PM 39.2 °F 29.8 °F 35.6 °F 87% 30.06 in 3.0 mi North 18.4 mph 28.8 mph 0.12 in Rain Rain
8:35 PM 39.2 °F 28.7 °F 35.6 °F 87% 30.05 in 5.0 mi North 23.0 mph 27.6 mph 0.20 in Rain Rain
8:55 PM 39.2 °F 29.0 °F 35.6 °F 87% 30.05 in 3.0 mi North 21.9 mph 26.5 mph 0.29 in Rain Heavy Rain
9:15 PM 37.4 °F 27.8 °F 35.6 °F 93% 30.06 in 7.0 mi North 17.3 mph 27.6 mph 0.06 in   Overcast
9:35 PM 37.4 °F 26.9 °F 35.6 °F 93% 30.06 in 7.0 mi North 20.7 mph - 0.09 in Rain Rain
9:55 PM 39.2 °F 29.3 °F 35.6 °F 87% 30.06 in 4.0 mi NNE 20.7 mph 28.8 mph 0.15 in Rain Rain
10:15 PM 39.2 °F 29.8 °F 35.6 °F 87% 30.08 in 4.0 mi NNE 18.4 mph 27.6 mph 0.07 in Rain Rain
10:35 PM 39.2 °F 30.8 °F 35.6 °F 87% 30.08 in 5.0 mi North 15.0 mph 25.3 mph 0.13 in Rain Rain
10:55 PM 39.2 °F 29.6 °F 35.6 °F 87% 30.07 in 5.0 mi NNE 19.6 mph 29.9 mph 0.21 in Rain Light Rain
11:15 PM 37.4 °F 26.4 °F 35.6 °F 93% 30.06 in 3.0 mi NNE 23.0 mph 29.9 mph 0.11 in Rain Rain
11:35 PM 37.4 °F 26.9 °F 33.8 °F 87% 30.07 in 7.0 mi NNE 20.7 mph 25.3 mph 0.18 in Rain Light Rain
11:55 PM 37.4 °F 27.5 °F 33.8 °F 87% 30.07 in 5.0 mi NNE 18.4 mph 25.3 mph 0.25 in Rain Rain